Location: Unspecified
(0.0000°N, 0.0000°E)
Time: 23:38:30
(UTC+00:00)

Vanguard 1 - Pass Details

Date: 04 October 2020
Orbit: 649 x 3833 km, 34.3° (Epoch: 28 October)

Event Time Altitude Azimuth Distance (km) Brightness Sun altitude
Rises 17:25:52 0° 249° (WSW) 7,659 16.4 5.6°
Reaches altitude 10° 17:32:09 10° 256° (WSW) 6,283 16.5 4.1°
Maximum altitude 17:48:18 39° 317° (NW) 3,117 13.1 0.1°
Drops below altitude 10° 17:57:51 10° 24° (NNE) 3,747 12.8 -2.3°
Sets 18:00:36 0° 33° (NNE) 4,390 13.0 -3.0°
